Change the Weather History Date:

Tuesday, February 4, 2014

  Actual Average Record
Temperature  
Mean Temperature 83 °F -  
Max Temperature 95 °F - - ()
Min Temperature 71 °F - - ()
Cooling Degree Days 18    
Growing Degree Days 33 (Base 50)    
Moisture  
Dew Point 69 °F    
Average Humidity 68    
Maximum Humidity 94    
Minimum Humidity 30    
Precipitation  
Precipitation 0.00 in - - ()
Sea Level Pressure  
Sea Level Pressure 29.72 in    
Wind  
Wind Speed 4 mph ()    
Max Wind Speed 13 mph    
Max Gust Speed -    
Visibility 5.5 miles    
Events      
T = Trace of Precipitation, MM = Missing Value Source: Averaged Metar Reports

Daily Weather History Graph

Daily Weather History Graph

Search for Another Location

Airport or City:

Trip Planner

Search our weather history database for the weather conditions in past years. The results will help you decide how hot, cold, wet, or windy it might be!

Date:

Astronomy

Feb. 04, 2014 Rise Set
Actual Time 7:27 AM MYT 7:27 PM MYT
Civil Twilight 7:06 AM MYT 7:49 PM MYT
Nautical Twilight 6:41 AM MYT 8:14 PM MYT
Astronomical Twilight 6:16 AM MYT 8:39 PM MYT
Moon 11:00 AM MYT 11:27 PM MYT
Length of Visible Light 12h 42m
Length of Day
11h 59m
Waxing Crescent, 23% of the Moon is Illuminated
Feb 4
Waxing Crescent
Feb 7
First Quarter
Feb 15
Full
Feb 23
Last Quarter
Mar 1
New

Hourly Weather History & Observations

Time (MYT) Temp. Heat Index Dew Point Humidity Pressure Visibility Wind Dir Wind Speed Gust Speed Precip Events Conditions
12:00 AM 77.0 °F - 71.6 °F 83% 29.80 in 5.6 mi West 3.5 mph - N/A   Mostly Cloudy
1:00 AM 77.0 °F - 71.6 °F 83% 29.77 in 5.6 mi West 3.5 mph - N/A   Mostly Cloudy
2:00 AM 77.0 °F - 69.8 °F 78% 29.74 in 4.3 mi NW 4.6 mph - N/A   Mostly Cloudy
3:00 AM 75.2 °F - 69.8 °F 83% 29.74 in 4.3 mi NNW 3.5 mph - N/A   Mostly Cloudy
4:00 AM 75.2 °F - 69.8 °F 83% 29.71 in 4.3 mi NW 3.5 mph - N/A   Mostly Cloudy
5:00 AM 75.2 °F - 69.8 °F 83% 29.71 in 4.3 mi NW 4.6 mph - N/A   Mostly Cloudy
6:00 AM 73.4 °F - 69.8 °F 88% 29.71 in 4.3 mi Calm Calm - N/A   Mostly Cloudy
7:00 AM 73.4 °F - 69.8 °F 88% 29.74 in 5.0 mi Calm Calm - N/A   Mostly Cloudy
8:00 AM 71.6 °F - 69.8 °F 94% 29.77 in 5.6 mi Calm Calm - N/A   Mostly Cloudy
9:00 AM 75.2 °F - 69.8 °F 83% 29.77 in 3.7 mi NNW 1.2 mph - N/A   Mostly Cloudy
10:00 AM 80.6 °F 84.6 °F 71.6 °F 74% 29.77 in 5.0 mi ENE 2.3 mph - N/A   Mostly Cloudy
11:00 AM 84.2 °F 87.3 °F 68.0 °F 58% 29.77 in 5.6 mi NW 5.8 mph - N/A   Mostly Cloudy
12:00 PM 87.8 °F 91.4 °F 68.0 °F 52% 29.77 in 6.2 mi WNW 6.9 mph - N/A   Mostly Cloudy
1:00 PM 91.4 °F 92.1 °F 62.6 °F 38% 29.71 in 6.2 mi WNW 12.7 mph - N/A   Mostly Cloudy
2:00 PM 93.2 °F 94.9 °F 64.4 °F 38% 29.68 in 6.2 mi NW 9.2 mph - N/A   Mostly Cloudy
3:00 PM 95.0 °F 96.0 °F 62.6 °F 34% 29.65 in 6.2 mi WNW 10.4 mph - N/A   Mostly Cloudy
4:00 PM 95.0 °F 94.4 °F 59.0 °F 30% 29.62 in 6.2 mi WNW 11.5 mph - N/A   Mostly Cloudy
5:00 PM 93.2 °F 98.8 °F 69.8 °F 46% 29.62 in 6.2 mi WNW 9.2 mph - N/A   Mostly Cloudy
6:00 PM 89.6 °F 94.7 °F 69.8 °F 52% 29.65 in 6.2 mi West 12.7 mph - N/A   Mostly Cloudy
7:00 PM 86.0 °F 91.8 °F 71.6 °F 62% 29.68 in 6.2 mi WNW 9.2 mph - N/A   Mostly Cloudy
8:00 PM 82.4 °F 87.2 °F 71.6 °F 70% 29.68 in 6.2 mi WNW 6.9 mph - N/A   Mostly Cloudy
9:00 PM 82.4 °F 87.2 °F 71.6 °F 70% 29.71 in 6.2 mi NW 4.6 mph - N/A   Mostly Cloudy
10:00 PM 80.6 °F 84.6 °F 71.6 °F 74% 29.74 in 6.2 mi NNW 1.2 mph - N/A   Mostly Cloudy
11:00 PM 78.8 °F - 71.6 °F 78% 29.77 in 6.2 mi NNW 2.3 mph - N/A   Mostly Cloudy